ORBCOMM FM25 [-]

Last updated on Fri Dec 29 2023 00:02:54 GMT+0000 (Coordinated Universal Time)

1 25479U 98053E 23361.83535323 .00002107 00000+0 78147-3 0 9998 2 25479 45.0079 288.7183 0003409 52.8906 307.2252 14.35045225320475
UTC large
Height (km)
Speed (km/s)
/
Latitude / Longitude
Inclination (degrees)
Orbital Period (minutes)
Azimuth
Elevation
Range (km)
Doppler Factor

Next 0 passes for location: London (51.5072 / 0.1276)

Sorry there are no passes over London.
ORBCOMM FM25 [-]